Tracking 25709 objects as of 23-May-2022
HD Live streaming from Space Station
objects crossing your sky now

MIDAS 3

Track MIDAS 3 now!
10-day predictions
MIDAS 3 is classified as:


NORAD ID: 163
Int'l Code: 1961-018A
Perigee: 3,353.8 km
Apogee: 3,548.7 km
Inclination: 91.1 °
Period: 161.5 minutes
Semi major axis: 9822 km
RCS: 10.0428 m2 (large)
Launch date: July 12, 1961
Source: United States (US)
Launch site: AIR FORCE WESTERN TEST RANGE (AFWTR)
aabbcc
Your satellite tracking list
Your tracking list is empty




NASA's NSSDC Master Catalog

Two Line Element Set (TLE):
1 00163U 61018A   22142.87890474  .00000030  00000-0  10320-1 0  9994
2 00163  91.1409 141.4421 0099234 348.8747  10.9934  8.91835444981494
Source of the keplerian elements: AFSPC